Погода в Максимовке

Россия / Белгородская область     50°31′46″N   37°21′59″E
темп.,
°C
ветер,
м/с
пор.,
м/с
влажн.,
%
обл.,
%
осадки,
мм/ч
давл.,
гПа
погр.,
м
6 мая, чт
чт600:00+12ю51164100 0.0 1014263
03:00+10ю41169100 0.0 1014266
06:00+8ю4117696 0.0 1014282
09:00+12ю71259100 0.0 1013740
12:00+16ю8115295 0.0 10121533
15:00+17ююз794895 0.0 10111997
18:00+15зюз5863100 0.0 1011479
21:00+13юз3967100 0.1 1012340
7 мая, пт
пт700:00+9ссз2493100 1.6 1013227
03:00+7сз3896100 1.6 1015245
06:00+7ссз249294 0.0 1016139
09:00+12с126742 0.0 1017653
12:00+15в114945 0.0 10171509
15:00+16ю124348 0.0 10161735
18:00+16ююв355696 0.0 1015397
21:00+12юв4762100 0.0 1015121
8 мая, сб
сб800:00+11юв51366100 0.0 1013277
03:00+12ю61379100 0.0 1012387
06:00+11ю61380100 0.4 1010426
09:00+12ю71584100 0.4 1010637
12:00+14ююз81280100 0.0 10091022
15:00+12ююз71396100 4.8 1008830
18:00+9сз5994100 7.6 1011618
21:00+9сз5991100 10.8 1013702
9 мая, вс
вс900:00+7сз3986100 0.8 1015555
03:00+6ссз4989100 0.9 1016469
06:00+5ссз51187100 0.0 1017571
09:00+7ссз61178100 0.0 1018739
12:00+9с71063100 0.1 10181292
15:00+12с81154100 0.1 10182139
18:00+10с71164100 0.2 10191165
21:00+8с6137271 0.3 1021627
10 мая, пн
пн1000:00+6ссз7147695 0.0 1022747
03:00+6с8177297 0.0 1022765
06:00+6с91874100 0.0 1022849
09:00+9ссв101769100 0.0 10221045
12:00+9ссв101769100 0.0 1022945
15:00+9ссв91574100 0.0 1022895
18:00+9ссв81486100 0.3 1023642
21:00+9ссв81689100 0.4 1023543